DO7VLR-5 Weather Reports


time (UTC)temp
C
wind
direction
speed
KPH
gust
KPH
rain 1hr
cm
rain 24hr
cm
rain mn
cm
humidity
%
barometer
mb
20260502163015 25 158 6.4 20.9 0.00 0.00 0.00 32 1016.2
20260502123017 25 180 6.4 19.3 0.00 0.00 0.00 46 1019.1
20260502113017 23 180 6.4 19.3 0.00 0.00 0.00 48 1019.7
20260502110016 23 180 6.4 17.7 0.00 0.00 0.00 48 1020.1
20260502103016 22 158 6.4 19.3 0.00 0.00 0.00 49 1020.4
20260502070018 12 113 1.6 6.4 0.00 0.00 0.00 72 1021.8
20260502063016 10 113 1.6 3.2 0.00 0.00 0.00 75 1021.9
20260502060016 8 90 1.6 4.8 0.00 0.00 0.00 80 1022.0
20260502053016 7 0.0 3.2 0.00 0.00 0.00 83 1022.1
20260502050016 6 0.0 1.6 0.00 0.00 0.00 86 1021.9
20260502043015 5 0.0 0.0 0.00 0.00 0.00 90 1021.9
20260502040016 5 0.0 0.0 0.00 0.00 0.00 89 1021.8
20260502033015 5 0.0 0.0 0.00 0.00 0.00 89 1021.7
20260502030015 5 0.0 1.6 0.00 0.00 0.00 88 1021.7
20260502023018 5 0.0 3.2 0.00 0.00 0.00 88 1021.8
20260502020015 6 0.0 4.8 0.00 0.00 0.00 86 1021.7
20260502013016 6 0 1.6 9.7 0.00 0.00 0.00 84 1021.7
20260502010017 6 158 1.6 8.0 0.00 0.00 0.00 82 1021.9
20260502003017 7 0.0 1.6 0.00 0.00 0.00 80 1022.0
20260502000017 7 293 1.6 4.8 0.00 0.00 0.00 80 1022.3
20260501233017 7 0.0 4.8 0.00 0.00 0.00 77 1022.2
20260501230017 8 0.0 3.2 0.00 0.00 0.00 75 1022.4
20260501223017 8 0.0 3.2 0.00 0.00 0.00 73 1022.4
20260501220017 10 0.0 1.6 0.00 0.00 0.00 69 1022.2
20260501213016 10 0.0 0.0 0.00 0.00 0.00 66 1022.3
20260501210016 11 0.0 1.6 0.00 0.00 0.00 61 1022.2
20260501203016 12 0.0 3.2 0.00 0.00 0.00 57 1022.3
20260501200016 13 0.0 3.2 0.00 0.00 0.00 52 1022.2
20260501193015 15 0.0 3.2 0.00 0.00 0.00 47 1022.0
20260501190015 16 270 1.6 3.2 0.00 0.00 0.00 41 1022.0
20260501183015 17 293 1.6 4.8 0.00 0.00 0.00 42 1021.8
20260501180016 19 90 3.2 11.3 0.00 0.00 0.00 34 1021.7
20260501173017 21 113 4.8 14.5 0.00 0.00 0.00 32 1021.8
20260501170017 23 90 4.8 14.5 0.00 0.00 0.00 24 1022.0